ARIANE 5 DEB (SYLDA), 43177

Orbit data source: Space-Track

ARIANE 5 DEB (SYLDA), 43177 is space debris in HEO originally from a launch on Thu, 25 Jan 2018 UTC launched from the French Guiana (FRGUI). Debris objects in space refer to the collection of defunct objects orbiting the Earth. Examples of debris include non-operational satellites, rocket bodies, and fragments generated from explosions, collisions, or faulty payload assembly.

Loading next visibility...
Identifier
43177, 2018-012D
Orbit
HEO
Last TLE update
11 hours ago
Origin
Manufacturer
ADS/Bremen
Mission
Spacecraft
Bus & Motor
SYLDA 5, Unknown motor
Mass
440 kg wet, 440 kg dry
Launch date (UTC)
2018-01-25 (7 years ago)
Launch vehicle
Unknown
Launch site
French Guiana (FRGUI)
Object type
Payload
Rocket body
Debris
Shape & HBR
Cyl, 5.5 m
Radar Cross Section
27.391 m², Large (>1 m²)

Expand to show TLE details & history

TLE from 11 hours ago
0 ARIANE 5 DEB (SYLDA)
1 43177U 18012D   25128.80461215  .00025418  00000-0  83196-2 0  9998
2 43177  21.2934  30.0634 7020242  78.8730 346.6052  2.60586404 55080
Epoch: 2025-05-08T19:18Z
Definitive object data (Epoch: 2025-05-08T19:18:38.489Z)
Latitude
-0.00004°
Longitude
-126.50676°
Altitude
3,593.328 km
Speed
7.879 km/s
True Right ascension
02h 00m 05s
True Declination
0° 00' 00"
Sunlit
Object was in daylight at TLE epoch
Visualization TLE readout
Latitude
-14.70279°
Longitude
95.53026°
Altitude
20,270.837 km
Speed
3.471 km/s
Apparent Right ascension
17h 14m 57s
Apparent Declination
-26° 28' 48"
Sunlit
Object is in daylight
Visualization observer readout
Local Sidereal Time
14:44:00
Azimuth
145.47° SSE
Elevation
14.881°
Doppler factor
1
Orbital elements
Apogee altitude
31,595.779 km
Perigee altitude
270.011 km
Semi-major axis
22,311.032 km
Eccentricity
0.7020242
Inclination
21.2934°
RAAN
30.0634°
Arg. of periapsis
78.873°
True anomaly
280.53355°
Mean anomaly
346.6052°
Eccentric anomaly
321.64616°
Mean motion
0.65127 °/min
BSTAR
0.0083196
Orbital period
552.76 mins
Loading maneuver chart data...
Loading SW <> Apogee altitude chart data...
Loading historical data...
Loading historical data...
Loading historical data...
Loading historical data...
Loading historical data...
Loading historical data...
Loading historical data...
Other satellites on launch #12 in the year 2018 (2018-01-25 UTC)

ARIANE 5 DEB (SYLDA) Visibility forecast

Observer location: undefined°, undefined°

Span
Click to sort rows by Start time (UTC) header in descending order
Start Az.
Max El. time (UTC)
Max El. Az.
Max El.
End time (UTC)
End Az.
389 mins2025-05-09 06:35:09.250Z145.485° SSE2025-05-09 10:53:09.250Z161.174° S15.97°2025-05-09 13:04:09.250Z149.814° SSE
|